This is the latest recevied weather packets stored in our database for station/object I4GOS-3. If no packets are shown the sender has not sent any weather packets the latest 1 day(s).
| Time | Temp. | Humidity | Pressure | Rain* | Wind** | Luminosity | Snow |
|---|---|---|---|---|---|---|---|
| 1777959712 | 15° C | 74% | 1014.1 hPa | 0 mm | 1.79 m/s, 115° | - | - |
| 1777959412 | 15° C | 75% | 1014.1 hPa | 0 mm | 1.34 m/s, 108° | - | - |
| 1777959111 | 14.44° C | 75% | 1014.1 hPa | 0 mm | 1.34 m/s, 117° | - | - |
| 1777958811 | 14.44° C | 75% | 1014.1 hPa | 0 mm | 1.34 m/s, 112° | - | - |
| 1777958511 | 14.44° C | 74% | 1014.1 hPa | 0 mm | 1.34 m/s, 119° | - | - |
| 1777958211 | 14.44° C | 74% | 1014.1 hPa | 0 mm | 3.13 m/s, 122° | - | - |
| 1777957908 | 14.44° C | 74% | 1014.2 hPa | 0 mm | 3.13 m/s, 125° | - | - |
| 1777957608 | 14.44° C | 75% | 1014.2 hPa | 0 mm | 3.58 m/s, 113° | - | - |
| 1777957307 | 14.44° C | 74% | 1014.3 hPa | 0 mm | 4.92 m/s, 128° | - | - |
| 1777957007 | 14.44° C | 75% | 1014.3 hPa | 0 mm | 4.02 m/s, 133° | - | - |
| 1777956707 | 14.44° C | 75% | 1014.4 hPa | 1.02 mm | 3.58 m/s, 133° | - | - |
| 1777956407 | 14.44° C | 75% | 1014.3 hPa | 1.27 mm | 4.47 m/s, 137° | - | - |
| 1777956107 | 14.44° C | 75% | 1014.4 hPa | 1.27 mm | 3.13 m/s, 137° | - | - |
| 1777955806 | 14.44° C | 74% | 1014.5 hPa | 1.02 mm | 3.58 m/s, 139° | - | - |
| 1777955506 | 14.44° C | 74% | 1014.5 hPa | 1.02 mm | 5.36 m/s, 135° | - | - |
| 1777955204 | 14.44° C | 74% | 1014.5 hPa | 1.02 mm | 4.92 m/s, 150° | - | - |
| 1777954904 | 14.44° C | 74% | 1014.5 hPa | 1.27 mm | 4.47 m/s, 141° | - | - |
| 1777954604 | 14.44° C | 74% | 1014.5 hPa | 1.78 mm | 4.47 m/s, 137° | - | - |
| 1777954304 | 14.44° C | 74% | 1014.6 hPa | 1.78 mm | 5.81 m/s, 127° | - | - |
| 1777954000 | 15° C | 74% | 1014.6 hPa | 1.78 mm | 3.58 m/s, 149° | - | - |
| 1777953700 | 15° C | 73% | 1014.5 hPa | 1.78 mm | 3.58 m/s, 125° | - | - |
| 1777953397 | 15.56° C | 71% | 1014.5 hPa | 0 mm | 1.79 m/s, 138° | - | - |
| 1777953097 | 15.56° C | 71% | 1014.5 hPa | 0 mm | 1.79 m/s, 141° | - | - |
| 1777952795 | 15.56° C | 69% | 1014.6 hPa | 0 mm | 2.68 m/s, 162° | - | - |
| 1777952495 | 16.11° C | 68% | 1014.6 hPa | 0 mm | 1.34 m/s, 147° | - | - |
* Rain latest hour (hover to see other rain measurements)
** Current wind speed in m/s (hover to see current wind gust speed)